Regional Weather Roundup
Issued by NWS

Home | Current Version | Previous Version | Graphics & Text | Print | Product List | Glossary On
Versions: 1 2 3 4 5 6 7 8 9 10 11 12 13 14 15 16 17 18 19 20 21 22 23 24 25 26 27 28 29 30 31 32 33 34 35 36 37 38 39 40 41 42 43 44 45 46 47 48 49 50
000
ASUS45 KTFX 171204
RWRMT
MONTANA HOURLY WEATHER ROUNDUP
NATIONAL WEATHER SERVICE GREAT FALLS MT
604 AM MDT WED SEP 17 2014

NOTE: "FAIR" INDICATES FEW OR NO CLOUDS BELOW 12000 FEET WITH NO
SIGNIFICANT WEATHER AND/OR OBSTRUCTIONS TO VISIBILITY.

* THESE STATIONS ARE NOT UNDER NWS QUALITY CONTROL. THEY DO NOT
   REPORT WEATHER SUCH AS PRECIPITATION OR FOG.

MTZ001>007-043-171300-
WEST OF THE DIVIDE
CITY           SKY/WX    TMP DP  RH WIND       PRES   REMARKS
KALISPELL      MOCLDY    46  43  89 CALM      29.89S
MISSOULA       CLEAR     48  43  83 CALM      29.94S
BUTTE          PTCLDY    39  37  93 S3        30.06S
MULLAN PASS    PTCLDY    61  36  39 S5        30.02S
* ESSEX        N/A       46  43  89 E1G6       N/A
* LINCOLN      N/A       39  37  93 N/A        N/A
* LOOKOUT PASS N/A       53  41  64 S1         N/A
* POLSON       N/A       54  41  62 N/A        N/A
* RONAN APT    PTCLDY    46  41  83 N/A        N/A
* SEELEY LAKE  N/A       40  37  89 N/A        N/A
* THOMP F APT  PTCLDY    56  35  45 NE4G10     N/A
$$

MTZ008-052>055-171300-
SOUTHWEST MONTANA
CITY           SKY/WX    TMP DP  RH WIND       PRES   REMARKS
BOZEMAN        PTCLDY    48  46  93 CALM      30.01S
DILLON         PTCLDY    50  43  77 SW9       30.04S
W YELLOWSTONE  CLEAR     32  32 100 CALM      30.16S
* THREE FORKS  PTCLDY    45  28  51 N/A        N/A
* BOULDER HILL N/A       50  42  74 S11        N/A
* RAYNOLDS PAS N/A       44  20  38 SE1        N/A
* WHITEHALL    N/A       45  41  86 N4         N/A
* WISE RIVER   N/A       39  37  93 W2         N/A
$$

MTZ009>010-012-014-046-048-049-054-171300-
EAST SLOPES AND CENTRAL MONTANA
CITY           SKY/WX    TMP DP  RH WIND       PRES   REMARKS
CUT BANK       CLEAR     46  41  83 W7        29.91S
GREAT FALLS    PTCLDY    57  45  64 SW8       29.90S
HELENA         CLEAR     50  45  83 CALM      29.96S
MALMSTROM AFB  MOCLDY    52  45  77 SE7       29.91F
* CONRAD       PTCLDY    52  46  80 N/A        N/A
* EAST GLACIER N/A       50  38  64 N10        N/A
* MONARCH      N/A       51  41  69 S7         N/A
* PENDROY      N/A       59  40  50 NW8        N/A
* ROGERS PASS  N/A       56  39  53 NW6        N/A
* SAINT MARY   N/A       38  36  93 SE3        N/A
* SWEET GRASS  N/A       60  38  44 W10        N/A
$$

MTZ011-013-016-021-035-040-045-047-050-051-171300-
NORTH CENTRAL MONTANA
CITY           SKY/WX    TMP DP  RH WIND       PRES   REMARKS
HAVRE          CLOUDY    48  46  93 W7        29.87R
LEWISTOWN      PTCLDY    52  43  72 SE5       29.95R
* CHESTER      N/A       48  43  83 NE3G8      N/A
* DENTON       N/A       52  45  77 SW2        N/A
* GEYSER       N/A       52  43  72 W1G9       N/A
* JUDITH GAP   N/A       56  46  69 SE6        N/A
* LOMA         N/A       55  49  80 W1         N/A
$$

MTZ017>020-022>027-061-062-171300-
NORTHEAST MONTANA
CITY           SKY/WX    TMP DP  RH WIND       PRES   REMARKS
GLASGOW        MOCLDY    50  41  71 SE5       29.90R
JORDAN         CLOUDY    48  46  93 CALM      29.89S
SIDNEY         PTCLDY    37  36  96 CALM      29.95S
WOLF POINT     MOCLDY    43  36  76 E5        29.92R
* BEAVER HILL  N/A       50  44  80 SE8        N/A
* CIRCLE       N/A       51  46  83 N/A        N/A
* LINDSAY DVD  N/A       49  42  77 E4         N/A
* NAVAJO       N/A       51  36  57 SW4        N/A
* SACO         N/A       47  42  83 NE4        N/A
$$

MTZ028>042-056>058-171300-
SOUTHCENTRAL AND SOUTHEAST MONTANA
CITY           SKY/WX    TMP DP  RH WIND       PRES   REMARKS
BAKER          PTCLDY    45  45 100 SE6       29.95S
BILLINGS       PTCLDY    64  45  50 SW6       29.94R
LIVINGSTON     MOCLDY    52  43  72 CALM      30.00S
MILES CITY     PTCLDY    48  46  93 N7        29.89S
* LAUREL APT   PTCLDY    61  45  56 SW7        N/A
* ROUNDUP APT  MOCLDY    55  45  69 S8         N/A
* ALZADA       N/A       48  41  77 W2         N/A
* HYSHAM       N/A       58  42  55 W6         N/A
* LAME DEER    N/A       65  36  34 W9G14      N/A
* REED POINT   N/A       54  48  80 SW2        N/A
* ROSCOE HILL  N/A       63  36  37 W1G6       N/A
$$

REGIONAL REPORTS...DAKOTAS
CITY           SKY/WX    TMP DP  RH WIND       PRES   REMARKS
WILLISTON      CLEAR     39  36  89 CALM      29.94R
DICKINSON      PTCLDY    45  39  80 CALM      29.94R
BEACH          N/A       43  43 100 S5        29.95S
CROSBY         CLEAR     45  41  86 S9        29.94R
TIOGA          CLEAR     32  32 100 CALM      29.98R
WATFORD CITY   CLEAR     36  32  85 CALM      29.93S
BISMARCK       CLEAR     39  39 100 CALM      29.95S
GRAND FORKS    FAIR      41  39  93 W3        29.93R
FARGO          FOG       45  43  93 CALM      29.91R
BUFFALO SD     PTCLDY    50  43  77 VRB5      29.89R
RAPID CITY     CLEAR     54  39  57 NW8       29.95R
$$

REGIONAL REPORTS...WYOMING/IDAHO/WASHINGTON
CITY           SKY/WX    TMP DP  RH WIND       PRES   REMARKS
GILLETTE       CLOUDY    64  37  37 VRB3      29.98S
SHERIDAN       LGT RAIN  64  46  52 NW8       29.96R
CODY           PTCLDY    52  41  66 S6        30.05S
YELLOWSTONE LA CLEAR     34  32  92 CALM      30.24S
SALMON         PTCLDY    46  43  89 CALM      30.01R
MULLAN PASS    PTCLDY    61  36  39 S5        30.02S
SAND POINT     CLEAR     45  45 100 CALM      29.86S
SPOKANE        CLOUDY    55  37  51 CALM      29.84S

$$



USA.gov is the U.S. government's official web portal to all federal, state and local government web resources and services.